Back to catalog

FENGYUN 1C DEB

AliveSSO
NORAD 30109·DEBRIS·🇨🇳 China

Launched May 10, 1999 from Taiyuan Satellite Launch Center

Loading…

Next Passes (next 24 hours)

TLE

FreshSource: Space-Track

Epoch: Sep 14, 2026, 10:30 UTC

1 30109U 99025RN  26257.43778475  .00000339  00000-0  16170-3 0  9998
2 30109  98.5280 244.8638 0167647 155.8998 357.2456 14.17969785 14596

Track FENGYUN 1C DEB in real time with AllMySat

Download on the App Store